WAT3465 BIKF-EFHK

Flight info

Callsign WAT3465
Flight time 3h 13m
Altitude 41000
Route LUTER3D LUTER DCT 64N010W 6330N00000E/N0481F410 DCT MORIG DCT TIGBA DCT UXADA Y349 AMROT Y362 LAKUT
Aircraft A359/H-SDE2E3GHIJ3J4J5LM1ORWXY/LB1D1

Departure

Time 2026-04-30 14:26
Airport Keflavik International Airport (BIKF)

Arrival

Time 2026-04-30 17:39
Airport Helsinki Vantaa Airport (EFHK)
Time Latitude Longitude Altitude Speed Heading
2026-04-30 13:44 63.99282 -22.62452 139 ft 0 kts 360°
2026-04-30 14:10 63.99267 -22.62452 147 ft 4 kts
2026-04-30 14:10 63.99240 -22.62454 147 ft 4 kts
2026-04-30 14:10 63.99214 -22.62460 147 ft 4 kts
2026-04-30 14:10 63.99191 -22.62472 147 ft 3 kts 25°
2026-04-30 14:11 63.99176 -22.62496 147 ft 3 kts 64°
2026-04-30 14:11 63.99173 -22.62528 147 ft 2 kts 87°
2026-04-30 14:11 63.99173 -22.62546 146 ft 0 kts 90°
2026-04-30 14:18 63.99173 -22.62431 142 ft 15 kts 90°
2026-04-30 14:18 63.99172 -22.62121 146 ft 22 kts 90°
2026-04-30 14:18 63.99173 -22.61494 155 ft 17 kts 90°
2026-04-30 14:19 63.99173 -22.60934 167 ft 19 kts 90°
2026-04-30 14:19 63.99174 -22.60640 176 ft 18 kts 89°
2026-04-30 14:19 63.99172 -22.60342 178 ft 18 kts 91°
2026-04-30 14:20 63.99172 -22.60200 178 ft 4 kts 89°
2026-04-30 14:20 63.99172 -22.60195 178 ft 0 kts 89°
2026-04-30 14:20 63.99154 -22.59999 179 ft 11 kts 123°
2026-04-30 14:21 63.99090 -22.59851 179 ft 15 kts 136°
2026-04-30 14:21 63.99007 -22.59668 181 ft 17 kts 135°
2026-04-30 14:21 63.98798 -22.59336 177 ft 17 kts 163°
2026-04-30 14:22 63.98700 -22.59298 178 ft 14 kts 178°
2026-04-30 14:22 63.98631 -22.59296 181 ft 0 kts 180°
2026-04-30 14:23 63.98540 -22.59294 189 ft 9 kts 180°
2026-04-30 14:24 63.98506 -22.59406 194 ft 0 kts 266°
2026-04-30 14:25 63.98505 -22.59419 190 ft 7 kts 266°
2026-04-30 14:25 63.98504 -22.61892 170 ft 143 kts 269°
2026-04-30 14:26 63.98601 -22.66339 1767 ft 142 kts 267°
2026-04-30 14:26 63.98626 -22.68798 2135 ft 167 kts 266°
2026-04-30 14:26 63.98568 -22.74742 3396 ft 195 kts 262°
2026-04-30 14:27 63.98156 -22.77585 4320 ft 190 kts 232°
2026-04-30 14:27 63.97037 -22.79149 5154 ft 199 kts 197°
2026-04-30 14:27 63.95564 -22.79351 5625 ft 227 kts 178°
2026-04-30 14:28 63.92230 -22.78686 6969 ft 252 kts 178°
2026-04-30 14:28 63.90630 -22.76879 7871 ft 270 kts 141°
2026-04-30 14:28 63.89744 -22.73037 8816 ft 287 kts 102°
2026-04-30 14:28 63.89687 -22.68381 9463 ft 306 kts 93°
2026-04-30 14:29 63.89609 -22.58293 10806 ft 331 kts 94°
2026-04-30 14:29 63.89659 -22.49185 11575 ft 365 kts 79°
2026-04-30 14:30 63.93063 -22.30468 13908 ft 399 kts 66°
2026-04-30 14:31 63.95169 -22.18540 15321 ft 414 kts 67°
2026-04-30 14:31 63.97322 -22.06149 16765 ft 428 kts 67°
2026-04-30 14:31 63.98420 -21.99785 17480 ft 436 kts 68°
2026-04-30 14:32 64.00270 -21.86409 18784 ft 449 kts 74°
2026-04-30 14:32 64.01106 -21.79526 19440 ft 454 kts 73°
2026-04-30 14:32 64.01972 -21.72543 20111 ft 459 kts 73°
2026-04-30 14:33 64.02856 -21.65499 20774 ft 465 kts 73°
2026-04-30 14:33 64.04668 -21.51159 22084 ft 476 kts 73°
2026-04-30 14:33 64.05587 -21.43862 22719 ft 481 kts 72°
2026-04-30 14:34 64.06513 -21.36484 23367 ft 486 kts 72°
2026-04-30 14:34 64.07447 -21.29013 23914 ft 491 kts 72°
2026-04-30 14:34 64.08315 -21.21425 24429 ft 496 kts 77°
2026-04-30 14:34 64.08804 -21.13597 25009 ft 500 kts 84°
2026-04-30 14:35 64.09346 -21.00350 25934 ft 506 kts 85°
2026-04-30 14:35 64.09771 -20.89568 26641 ft 512 kts 84°
2026-04-30 14:35 64.10091 -20.81429 27175 ft 516 kts 84°
2026-04-30 14:36 64.10410 -20.73218 27711 ft 520 kts 84°
2026-04-30 14:36 64.10729 -20.64933 28238 ft 524 kts 84°
2026-04-30 14:36 64.11046 -20.56605 28751 ft 528 kts 84°
2026-04-30 14:36 64.11360 -20.48230 29265 ft 531 kts 84°
2026-04-30 14:37 64.11673 -20.39761 29774 ft 535 kts 84°
2026-04-30 14:37 64.11878 -20.34124 30083 ft 537 kts 84°
2026-04-30 14:37 64.12218 -20.22810 30692 ft 539 kts 86°
2026-04-30 14:37 64.12406 -20.14243 31210 ft 539 kts 88°
2026-04-30 14:38 64.12573 -20.05661 31707 ft 539 kts 88°
2026-04-30 14:38 64.12734 -19.97097 32161 ft 540 kts 88°
2026-04-30 14:38 64.12898 -19.88500 32573 ft 541 kts 88°
2026-04-30 14:38 64.13064 -19.79902 32974 ft 542 kts 88°
2026-04-30 14:39 64.13178 -19.74069 33234 ft 543 kts 89°
2026-04-30 14:39 64.13345 -19.65436 33669 ft 542 kts 89°
2026-04-30 14:39 64.13510 -19.56846 34200 ft 538 kts 89°
2026-04-30 14:40 64.13824 -19.39706 34773 ft 542 kts 89°
2026-04-30 14:40 64.13973 -19.31071 35045 ft 543 kts 90°
2026-04-30 14:40 64.14117 -19.22424 35346 ft 544 kts 90°
2026-04-30 14:40 64.14256 -19.13871 35634 ft 544 kts 90°
2026-04-30 14:41 64.14393 -19.05083 35935 ft 545 kts 90°
2026-04-30 14:41 64.14522 -18.96405 36214 ft 546 kts 90°
2026-04-30 14:41 64.14646 -18.87701 36505 ft 546 kts 90°
2026-04-30 14:41 64.14765 -18.79015 36798 ft 546 kts 90°
2026-04-30 14:42 64.14877 -18.70423 37081 ft 547 kts 90°
2026-04-30 14:42 64.14987 -18.61712 37365 ft 547 kts 90°
2026-04-30 14:42 64.15091 -18.53008 37683 ft 546 kts 90°
2026-04-30 14:42 64.15190 -18.44313 37991 ft 545 kts 90°
2026-04-30 14:43 64.15283 -18.35639 38282 ft 544 kts 90°
2026-04-30 14:43 64.15370 -18.26972 38578 ft 544 kts 90°
2026-04-30 14:43 64.15453 -18.18312 38802 ft 543 kts 90°
2026-04-30 14:43 64.15530 -18.09687 39052 ft 542 kts 90°
2026-04-30 14:44 64.15602 -18.01063 39290 ft 540 kts 91°
2026-04-30 14:44 64.15668 -17.92485 39523 ft 539 kts 91°
2026-04-30 14:44 64.15730 -17.83902 39764 ft 537 kts 91°
2026-04-30 14:44 64.15786 -17.75345 39993 ft 536 kts 91°
2026-04-30 14:45 64.15838 -17.66792 40178 ft 536 kts 91°
2026-04-30 14:45 64.15884 -17.58263 40362 ft 536 kts 91°
2026-04-30 14:45 64.15925 -17.49728 40532 ft 536 kts 91°
2026-04-30 14:45 64.15961 -17.41189 40710 ft 535 kts 91°
2026-04-30 14:46 64.15992 -17.32655 40873 ft 535 kts 91°
2026-04-30 14:46 64.16018 -17.24113 40934 ft 536 kts 92°
2026-04-30 14:46 64.16056 -17.07064 40948 ft 535 kts 92°
2026-04-30 14:47 64.16074 -16.89985 40926 ft 535 kts 92°
2026-04-30 14:47 64.16071 -16.72929 40932 ft 535 kts 92°
2026-04-30 14:48 64.16049 -16.55880 40923 ft 535 kts 93°
2026-04-30 14:48 64.16008 -16.38829 40926 ft 535 kts 93°
2026-04-30 14:49 64.15946 -16.21798 40919 ft 534 kts 93°
2026-04-30 14:49 64.15864 -16.04758 40915 ft 534 kts 93°
2026-04-30 14:50 64.15705 -15.79235 40912 ft 534 kts 94°
2026-04-30 14:51 64.15500 -15.53707 40912 ft 534 kts 94°
2026-04-30 14:52 64.15250 -15.28172 40909 ft 535 kts 94°
2026-04-30 14:52 64.14956 -15.02608 40913 ft 535 kts 94°
2026-04-30 14:53 64.14618 -14.77064 40920 ft 535 kts 95°
2026-04-30 14:54 64.14099 -14.43152 40939 ft 534 kts 95°
2026-04-30 14:55 64.13657 -14.17677 40940 ft 533 kts 95°
2026-04-30 14:56 64.12999 -13.83754 40947 ft 533 kts 96°
2026-04-30 14:57 64.12455 -13.58343 40951 ft 533 kts 96°
2026-04-30 14:58 64.11659 -13.24457 40956 ft 533 kts 96°
2026-04-30 14:58 64.11012 -12.99075 40959 ft 533 kts 97°
2026-04-30 15:00 64.09835 -12.56801 40963 ft 533 kts 97°
2026-04-30 15:01 64.08805 -12.23017 40966 ft 532 kts 98°
2026-04-30 15:01 64.07982 -11.97711 40970 ft 532 kts 98°
2026-04-30 15:02 64.07409 -11.80867 40982 ft 532 kts 98°
2026-04-30 15:03 64.05896 -11.38887 40980 ft 531 kts 98°
2026-04-30 15:04 64.04260 -10.96900 40986 ft 531 kts 99°
2026-04-30 15:06 64.02505 -10.55001 40986 ft 530 kts 99°
2026-04-30 15:07 64.01017 -10.21586 40987 ft 529 kts 100°
2026-04-30 15:08 63.99606 -9.88172 40989 ft 531 kts 96°
2026-04-30 15:09 63.99107 -9.46136 41001 ft 532 kts 96°
2026-04-30 15:10 63.98453 -9.12515 41001 ft 531 kts 97°
2026-04-30 15:11 63.97305 -8.62158 40998 ft 530 kts 97°
2026-04-30 15:13 63.96222 -8.20299 40997 ft 529 kts 97°
2026-04-30 15:14 63.94505 -7.61853 40998 ft 528 kts 98°
2026-04-30 15:17 63.91962 -6.86993 41009 ft 527 kts 99°
2026-04-30 15:19 63.89386 -6.20808 41025 ft 526 kts 99°
2026-04-30 17:39 60.31667 24.95198 173 ft 0 kts 169°
2026-04-30 17:41 60.31684 24.95423 173 ft 6 kts 46°
2026-04-30 17:42 60.31702 24.95528 173 ft 1 kts 113°
2026-04-30 17:42 60.31653 24.95725 172 ft 8 kts 68°
2026-04-30 17:43 60.31700 24.95845 172 ft 0 kts 48°
2026-04-30 17:44 60.31712 24.95872 172 ft 6 kts 48°
2026-04-30 17:44 60.31808 24.96108 172 ft 5 kts 85°
2026-04-30 17:46 60.31769 24.96214 172 ft 0 kts 133°